* Astronomy

Members Login
Post Info TOPIC: ATLAS F rocket body re-entry


L

Posts: 131433
Date:
RE: ATLAS F rocket body re-entry
Permalink  
 


Update:
The ATLAS F rocket body re-entered the Earths atmosphere on the 11th August 2012 @ 07:00 GMT ± 2 hours.

Inclination: 62.79°
Revolution Number:  67818
Predicted Location:   60.6°N 24.6°W



__________________


L

Posts: 131433
Date:
Permalink  
 

Update:
The ATLAS F rocket body is predicted to re-enter the Earths atmosphere on the 11th August 2012 @ 17:24 GMT ± 15 hours.

ATLAS F RB
1 10801U 78020B   12222.76001146  .19008861  81317-5  62365-3 0  2324
2 10801 062.7886 290.1662 0553013 043.6421 091.3642 15.22968026677941

Period:       97.63 minutes
Inclination: 62.79°
Apogee:     1170 km
Perigee:     120 km 
Revolution Number:  67820
Predicted Location:   12.6°N 67.5°E



__________________


L

Posts: 131433
Date:
Permalink  
 

An ATLAS F rocket body that was launched on the 22nd February, 1978, from the Vandenberg Air Force Base, for the OPS 5111 (Navstar 1) satellite mission is predicted to re-enter the Earths atmosphere on the 11th August 2012 @ 06:00 GMT ± 48 hours.

ATLAS F RB
1 10801U 78020B   12220.25306193  .10839912  65667-5  54743-3 0  2215
2 10801 062.8015 298.5422 0844487 042.8538 017.3113 14.51748565677575

Period:       101.6 minutes
Inclination: 62.80°
Apogee:     1544 km
Perigee:     125 km 
Revolution Number:  67817
Predicted Location:   30.1°S, 146.2°W



__________________
Page 1 of 1  sorted by
 
Quick Reply

Please log in to post quick replies.



Create your own FREE Forum
Report Abuse
Powered by ActiveBoard